GFSNGP_sfc_30mbdewp_108.txt.gz
Dewpoint
32 32 33 31 31 33 32 32 26 28 27 29 30 30 31 32 31 30 29 28 30 30 31 31 31 32 32 32 33 35 34 35 37 38 40 42 48 58 58 57 57 57 56 56
30 32 31 28 30 31 31 31 30 29 25 30 31 31 29 30 29 28 27 27 28 30 30 30 31 30 31 31 32 33 34 34 35 36 36 38 39 42 44 45 45 45 44 43
25 30 29 21 27 28 28 31 30 26 28 30 27 26 27 28 30 29 26 28 28 29 30 30 31 31 30 31 31 31 31 33 33 34 34 35 35 35 36 37 38 37 37 38
24 29 15 26 31 30 27 28 29 31 29 27 26 27 28 29 29 29 26 26 26 27 29 29 30 30 29 29 29 29 30 30 31 33 32 33 32 32 32 32 32 33 33 34
25 25 26 25 26 26 27 25 29 29 30 28 28 27 25 29 30 30 26 25 25 26 27 29 28 31 28 28 27 28 27 28 29 31 32 31 31 31 31 31 30 30 31 32
28 20 17 24 25 27 28 21 30 28 27 26 30 23 23 28 30 28 25 24 23 24 25 26 28 28 28 25 25 25 26 27 28 29 29 30 31 31 31 30 30 30 29 30
23 21 22 26 27 28 21 21 30 29 27 25 23 25 27 28 27 27 23 23 23 23 23 24 25 27 27 25 23 24 25 25 26 27 27 28 29 30 30 29 29 28 28 28
21 17 15 29 27 22 28 31 31 30 28 27 26 26 26 27 23 23 22 21 22 22 22 23 25 25 26 27 24 23 23 23 24 25 26 26 27 27 28 27 26 26 26 27
24 22 29 31 29 32 33 31 32 31 28 26 26 26 24 22 22 22 21 21 21 21 21 22 24 25 25 28 27 24 21 21 22 22 23 24 24 25 24 25 25 25 25 25
25 27 28 30 32 32 32 29 26 27 31 30 28 26 22 21 21 21 21 21 21 20 19 21 22 22 25 27 28 28 23 20 20 21 21 22 22 23 23 23 23 23 24 24
26 28 28 28 29 27 25 25 22 22 22 23 21 21 20 20 20 20 20 21 20 19 19 19 20 21 22 25 25 25 25 25 21 20 20 21 23 23 23 25 25 23 24 25
23 30 28 28 29 26 22 22 22 21 21 21 21 21 20 20 20 20 19 19 18 17 17 18 18 18 20 22 25 24 23 24 25 22 19 19 19 21 23 24 25 25 26 26
28 30 28 29 30 28 21 21 21 20 20 21 21 20 20 18 18 19 18 17 17 16 15 15 16 16 17 19 22 24 23 24 24 24 24 19 18 17 17 19 22 22 24 24
30 30 29 29 21 23 21 20 21 21 21 21 19 18 18 16 16 15 17 18 15 13 14 14 14 14 16 18 19 21 23 24 22 23 23 22 21 20 18 15 15 15 17 21
31 25 22 21 21 20 20 19 19 18 18 18 18 17 16 15 14 13 13 14 13 12 12 12 12 12 14 15 17 21 21 22 22 22 22 21 18 15 12 11 11 12 13 13
23 22 21 20 20 21 20 19 18 18 17 16 17 17 16 15 15 14 13 12 11 9 10 9 9 11 12 11 13 17 19 20 18 18 18 19 17 12 9 9 10 11 11 10
24 23 20 19 19 19 19 20 18 16 14 13 13 15 16 14 12 10 10 13 11 10 9 7 10 10 8 11 12 15 17 15 13 13 15 15 17 11 7 9 11 11 11 10
21 21 22 20 19 20 18 17 16 15 14 14 12 10 9 9 9 9 9 10 11 7 8 8 10 8 9 11 13 16 16 16 16 15 15 14 14 14 10 9 11 11 11 10
20 20 20 20 19 18 17 16 15 15 13 11 9 7 7 6 6 6 7 7 4 4 7 9 6 5 8 11 12 15 15 12 14 16 14 9 12 13 12 12 11 8 8 8
18 18 18 17 16 15 14 12 12 12 11 12 8 8 7 6 7 6 6 10 7 6 8 7 3 1 7 10 12 12 13 14 15 13 11 11 10 10 12 11 10 9 8 6
14 14 14 14 14 13 13 12 11 10 8 7 3 3 7 8 8 7 9 10 6 8 8 6 2 0 4 9 12 9 9 12 12 11 11 11 10 10 10 10 10 9 9 8
12 12 12 13 13 14 14 12 11 8 5 3 3 4 7 10 10 10 7 8 7 8 9 4 2 -2 3 7 9 9 9 9 9 10 9 9 9 8 8 8 8 7 7 6
13 14 14 13 13 14 14 12 11 10 8 6 5 6 8 8 10 12 10 9 7 5 9 7 2 -2 -0 8 6 6 9 9 8 5 4 4 5 4 4 7 7 6 6 6
14 15 13 14 15 15 14 13 13 13 11 11 10 10 11 9 9 14 9 6 4 3 1 6 1 0 -1 4 8 4 6 7 4 1 7 7 6 4 2 2 5 2 1 3
16 15 15 16 16 15 17 17 19 18 19 18 18 18 16 13 9 10 11 8 8 6 5 6 5 3 0 2 7 6 4 6 5 1 4 3 4 7 7 4 3 3 -1 -1
17 17 16 17 16 16 15 17 11 13 13 11 11 9 12 14 16 13 12 9 9 8 7 5 5 5 4 4 6 5 4 7 6 7 6 5 5 4 6 4 4 2 3 3
17 19 19 20 19 14 12 13 13 12 10 9 9 7 8 9 16 15 14 12 10 9 7 8 9 9 9 9 8 7 2 5 6 8 6 3 1 2 4 6 5 3 2 3

GFSNGP_sfc_30mbdewp_111.txt.gz
Dewpoint
30 30 29 28 30 33 30 29 24 25 23 26 28 28 30 29 27 26 26 27 29 29 29 30 30 30 30 31 32 32 32 33 35 36 36 36 36 37 40 56 57 57 56 56
28 29 27 25 27 28 31 30 28 26 23 28 29 30 28 29 27 25 25 25 27 28 28 29 29 29 29 29 30 31 31 31 33 34 34 34 34 34 34 35 39 46 49 49
24 29 27 18 25 26 26 28 29 24 26 28 25 25 26 27 27 25 24 25 26 28 28 28 29 28 28 28 29 29 29 30 31 32 33 33 33 33 33 33 33 34 35 38
26 28 15 25 30 30 25 26 29 27 27 26 25 26 28 29 28 24 24 24 26 27 28 29 29 28 26 26 27 27 27 28 29 30 31 31 31 31 32 32 32 31 32 33
25 21 24 26 26 25 26 24 28 29 27 27 28 28 25 29 29 25 24 24 24 25 26 26 27 28 24 25 25 25 25 26 27 28 29 29 30 30 30 30 31 31 31 31
26 19 16 23 25 28 28 20 28 28 26 27 29 21 22 28 28 24 23 23 22 23 24 25 25 27 24 22 23 23 24 25 25 26 27 28 28 29 29 29 29 30 29 30
23 21 22 25 29 31 21 21 29 27 26 24 22 25 27 24 23 22 22 22 22 22 23 24 25 26 25 24 22 22 23 23 24 24 25 26 27 28 28 28 28 28 28 28
21 15 15 28 27 22 28 31 30 28 25 25 26 26 23 22 22 22 21 21 20 21 22 22 23 24 25 26 26 21 21 22 22 23 23 24 25 25 26 26 26 26 27 27
23 21 28 31 29 31 32 30 31 28 26 25 24 22 21 21 21 21 21 20 20 19 20 21 22 22 23 25 27 24 20 20 21 22 22 23 23 23 23 24 24 25 26 25
24 27 27 29 29 31 31 25 25 31 30 29 23 21 21 21 21 21 20 19 18 18 18 19 20 20 22 24 25 24 23 20 19 20 21 22 22 23 23 23 23 23 24 25
25 27 26 28 27 25 24 23 22 22 22 21 21 20 20 20 20 19 18 18 17 17 17 17 18 18 19 21 24 24 24 24 21 19 19 20 22 24 23 25 26 24 24 26
23 27 27 26 28 24 23 22 22 21 21 21 21 20 20 19 19 18 17 16 15 14 14 15 15 16 17 19 22 23 22 23 23 21 19 19 19 19 22 22 24 25 27 25
28 29 27 28 30 23 22 21 21 21 21 20 19 18 17 17 18 18 16 14 12 13 13 14 14 14 14 17 20 22 22 22 22 22 22 18 17 17 15 16 19 21 23 23
29 29 26 22 22 22 22 22 22 21 20 18 17 16 16 15 14 14 15 15 12 12 12 12 12 11 12 14 16 19 21 21 20 20 19 19 17 13 12 13 13 13 15 19
26 25 22 20 20 20 20 19 18 17 17 17 16 15 14 13 12 12 13 12 9 10 10 10 10 9 11 13 15 17 19 19 18 18 18 16 12 9 9 10 11 10 10 11
22 22 22 21 20 20 19 18 18 17 16 16 16 15 15 14 13 12 12 11 9 8 8 8 8 8 9 12 13 15 16 15 13 14 16 15 10 7 10 11 10 9 8 8
21 21 20 19 19 19 19 18 16 14 13 13 13 15 13 11 9 10 9 10 9 7 7 6 7 6 7 11 12 15 15 15 13 15 15 15 10 7 9 10 9 9 8 7
23 23 21 20 19 18 17 16 15 14 13 12 10 9 8 7 8 8 8 7 8 5 6 7 6 2 7 11 13 15 13 14 16 13 13 13 14 10 10 10 10 9 8 7
21 20 20 20 19 17 16 15 14 13 11 8 6 5 5 4 4 4 4 9 2 4 5 7 7 3 6 11 13 13 14 13 13 14 11 12 12 12 11 11 8 8 7 6
18 18 18 17 16 15 13 12 11 11 10 10 7 7 4 6 6 7 5 8 8 6 7 7 4 1 3 9 11 11 12 12 13 12 11 10 9 10 10 10 9 6 5 5
15 14 13 13 12 11 11 11 10 10 8 7 6 1 5 7 7 6 9 9 9 6 8 7 2 -0 3 8 11 9 9 10 10 10 10 9 9 8 8 8 8 8 7 5
12 12 11 12 12 12 12 11 10 7 4 2 1 1 4 8 9 9 8 8 9 6 10 7 3 -1 0 7 8 8 9 9 9 9 8 8 8 7 7 7 7 6 6 5
11 12 12 12 12 13 13 12 10 9 8 6 5 5 5 8 9 10 11 10 9 6 6 8 6 0 -1 5 5 4 7 8 8 7 5 4 5 5 6 7 6 6 6 5
13 14 14 13 13 15 14 13 13 13 11 10 10 10 11 12 12 12 15 10 8 4 2 2 5 3 -1 1 4 5 4 6 4 -0 2 4 3 2 1 4 5 1 0 2
14 14 14 15 16 15 15 17 18 18 17 18 18 15 15 15 14 13 12 11 8 7 7 4 5 5 2 1 1 4 5 3 4 3 2 4 4 5 5 3 3 3 1 -1
16 16 15 16 16 16 16 19 18 13 13 11 10 9 7 7 10 14 14 13 12 9 8 7 5 4 4 3 3 4 5 4 4 5 4 5 4 4 3 5 4 3 0 1
18 18 18 19 20 19 14 12 14 14 12 9 9 9 7 7 6 11 14 13 11 9 8 7 7 6 6 7 6 6 6 5 2 4 5 5 3 1 1 3 4 3 3 2

GFSNGP_sfc_30mbdewp_114.txt.gz
Dewpoint
29 29 28 26 28 29 26 26 20 22 21 24 26 26 27 28 24 24 25 25 27 28 28 29 27 28 28 29 30 30 31 32 33 34 34 35 36 36 37 37 37 40 51 57
28 31 30 23 26 25 28 27 25 24 21 27 27 28 27 26 23 23 24 25 26 27 27 27 27 26 27 27 28 29 29 29 31 32 32 33 33 34 35 35 35 35 35 37
25 27 24 17 24 24 24 27 28 21 24 27 24 24 25 26 24 23 23 24 25 25 26 27 27 25 25 26 27 27 27 28 29 30 30 31 31 32 32 33 34 34 34 34
26 26 15 24 27 28 24 25 28 25 25 25 24 26 26 27 24 22 22 23 24 25 25 26 27 25 24 24 24 25 25 26 27 28 29 29 29 30 30 31 31 32 32 33
25 21 24 25 25 25 24 23 27 28 28 27 27 27 23 28 24 23 22 22 23 24 25 25 26 26 23 22 22 23 23 24 25 26 27 27 28 28 29 29 29 29 30 30
25 20 16 22 25 29 29 20 27 26 25 26 29 20 20 23 23 22 21 21 22 22 23 23 24 27 25 22 21 21 22 23 23 25 25 26 26 27 28 29 28 28 28 29
23 20 22 25 29 32 21 20 27 25 24 23 22 23 23 23 21 21 20 20 21 21 21 22 22 23 25 25 22 21 22 23 23 23 24 24 25 26 27 27 27 27 27 28
23 18 16 29 29 22 27 30 28 25 25 25 24 22 21 21 20 20 19 19 19 20 20 20 21 21 22 23 25 23 21 21 22 23 23 24 23 23 24 25 25 26 25 26
22 21 28 30 29 31 30 31 29 26 26 24 22 20 20 20 20 20 19 18 18 18 18 18 19 20 20 22 25 23 22 20 20 21 23 23 23 23 24 23 24 24 24 25
24 26 27 28 29 30 27 27 29 28 27 23 21 21 20 20 19 18 18 16 16 17 17 16 17 18 19 21 23 23 22 21 19 20 20 21 21 22 23 23 23 22 23 23
24 26 27 27 27 26 24 23 22 22 22 21 20 20 19 19 18 17 16 16 14 14 15 15 15 16 17 19 22 22 21 21 21 19 19 19 20 22 22 24 25 23 23 23
23 26 26 26 26 26 23 22 22 21 20 21 20 20 18 18 17 16 14 12 12 12 13 14 13 13 13 16 20 21 21 21 22 22 18 18 17 16 19 21 21 22 22 23
28 29 27 28 23 23 21 21 21 21 20 18 18 17 17 17 17 16 15 11 11 11 11 11 11 10 12 14 17 20 20 21 20 20 20 18 15 13 13 14 16 18 19 19
28 26 25 24 22 22 22 21 20 19 18 16 16 15 15 13 12 13 13 11 10 10 10 10 8 7 10 13 14 17 17 17 18 18 16 13 9 9 10 11 9 9 11 15
25 26 22 21 21 20 19 18 18 17 17 16 15 14 13 12 12 12 12 10 9 8 8 8 7 6 9 13 14 15 15 13 13 15 15 11 7 9 9 9 8 7 7 8
22 21 21 20 19 19 19 18 17 16 16 16 15 14 14 12 11 10 10 10 8 7 6 4 3 3 8 11 12 14 14 13 13 13 14 11 7 9 9 9 7 6 6 6
21 21 21 20 19 18 18 17 16 14 13 13 13 13 12 9 9 9 7 9 8 6 6 6 5 2 6 10 11 12 12 14 14 13 13 13 8 9 9 8 7 7 6 5
24 23 22 20 19 17 16 15 14 13 12 11 9 7 5 5 6 7 7 5 1 4 4 6 5 3 3 9 13 13 13 13 15 13 11 12 12 10 10 9 8 7 6 5
21 20 20 20 18 17 16 15 13 12 9 6 4 2 3 3 4 4 3 6 6 5 6 6 7 2 2 8 12 11 12 12 12 12 10 10 10 11 10 9 7 6 5 5
19 19 18 17 16 14 12 11 11 11 8 8 6 5 4 7 6 7 5 8 8 7 6 7 4 1 2 8 10 10 9 10 10 10 9 9 8 8 8 9 8 6 5 4
16 15 13 12 11 10 10 10 10 10 8 6 4 2 5 5 6 6 9 10 8 6 7 8 4 2 -0 5 9 9 7 8 8 8 8 7 7 7 6 5 6 6 6 4
12 11 11 11 11 11 10 10 9 5 3 1 -0 -1 1 5 7 7 7 10 9 8 6 7 7 4 -1 3 8 5 7 7 8 7 6 6 6 6 6 5 6 5 4 3
11 11 11 11 12 12 11 11 10 9 9 8 7 7 6 8 9 10 11 10 10 9 6 4 6 6 1 -2 4 5 4 5 6 6 4 3 3 3 4 5 5 5 4 4
11 12 12 12 12 14 13 13 13 13 11 11 11 10 11 12 11 12 12 13 13 9 5 3 2 4 3 0 -1 1 2 4 3 3 1 1 2 2 2 2 4 3 0 0
13 14 13 14 15 14 15 16 17 18 18 16 17 16 11 12 12 11 12 12 12 11 9 6 6 4 3 2 1 1 2 3 3 2 4 4 4 3 3 2 2 3 3 -0
15 14 14 15 15 15 16 16 17 15 13 12 11 8 8 6 6 6 8 12 12 12 10 9 6 5 5 4 3 3 3 3 4 3 2 3 3 3 3 3 1 3 2 2
16 17 17 18 19 19 17 13 12 14 12 9 8 8 7 8 8 7 8 8 9 9 8 8 8 8 7 7 7 5 4 4 3 4 3 2 2 2 3 2 -0 1 2 2

GFSNGP_sfc_30mbdewp_117.txt.gz
Dewpoint
30 29 27 26 25 26 24 25 18 21 20 23 24 25 24 26 25 24 24 24 25 25 26 26 25 25 27 27 28 29 30 30 31 32 33 33 34 35 36 36 37 38 38 38
27 31 30 24 25 23 27 25 24 22 21 26 27 27 24 24 23 21 22 23 24 24 24 25 24 24 25 26 27 28 28 28 30 30 30 31 32 32 33 33 34 35 35 35
24 30 27 21 23 24 24 26 26 20 24 25 23 23 22 23 22 21 21 22 23 24 24 25 25 24 24 24 26 26 26 27 28 29 29 30 30 30 31 31 31 31 32 33
25 27 17 25 29 28 23 25 27 25 25 23 23 24 24 23 21 21 21 21 22 23 23 25 27 25 23 23 24 25 25 25 26 27 28 29 29 29 30 30 30 29 30 30
24 22 24 25 25 25 24 23 26 26 27 25 26 25 21 23 22 21 21 21 22 22 23 24 25 27 25 22 22 23 23 24 25 26 26 27 28 29 29 29 29 28 28 28
26 21 17 22 27 30 29 19 26 24 25 23 29 20 19 22 21 20 20 20 21 20 21 21 23 24 25 24 22 22 23 24 24 25 25 25 26 27 29 29 29 29 29 28
22 21 21 25 29 33 21 21 26 24 23 22 20 22 22 21 20 19 18 19 19 19 19 20 20 21 22 23 24 23 22 23 24 25 25 26 26 27 27 28 28 28 28 28
22 20 17 28 30 23 26 29 26 26 24 22 22 22 21 20 20 18 17 17 18 18 18 18 19 19 20 22 24 23 21 21 22 23 24 24 25 26 26 26 26 25 26 26
22 21 28 30 28 30 32 28 28 26 24 23 22 20 20 19 19 18 16 15 16 16 16 17 18 19 19 21 22 22 21 19 20 21 21 22 23 23 23 24 23 23 24 24
25 26 27 28 29 27 28 28 28 25 23 22 22 21 20 19 17 16 14 13 14 15 15 15 15 16 18 20 21 20 20 20 18 18 18 19 20 20 21 23 22 21 21 22
24 26 26 27 27 25 24 24 23 22 21 21 20 19 18 16 15 13 11 11 11 13 13 13 13 14 16 18 20 18 19 19 20 18 18 16 18 20 20 23 23 21 21 22
23 26 26 26 28 26 23 22 21 21 20 20 19 18 17 17 16 14 9 9 9 8 8 10 11 13 15 17 19 18 17 17 19 19 18 16 14 14 18 18 18 19 20 21
28 29 27 27 25 23 21 21 20 18 17 17 16 16 16 15 15 12 10 7 8 8 7 7 7 10 13 15 18 19 18 18 18 18 17 14 13 13 13 16 14 14 16 17
28 27 26 23 21 21 21 20 18 17 16 15 14 14 13 12 12 11 10 9 8 8 8 7 6 7 11 14 16 16 17 15 17 19 18 15 13 14 14 13 12 11 12 13
28 28 24 23 21 20 19 18 17 16 15 14 13 13 12 12 12 12 12 9 7 8 7 6 7 6 10 13 14 16 17 17 17 18 18 13 14 14 13 12 11 10 10 9
21 22 21 20 19 19 18 18 17 16 16 15 14 13 12 11 11 10 11 10 7 8 9 7 7 6 6 11 13 15 15 15 15 17 17 16 14 13 12 11 10 9 8 8
21 20 20 20 20 19 19 18 16 15 14 14 13 13 11 10 10 9 8 8 7 7 6 7 6 5 3 9 13 14 15 15 15 15 15 15 14 13 12 11 10 9 8 7
24 23 22 21 19 17 16 15 14 13 13 12 11 7 4 5 7 7 6 5 5 5 6 7 6 5 5 10 12 12 13 13 13 13 13 13 13 13 12 11 10 9 8 7
22 21 21 20 18 17 16 15 14 13 9 6 3 2 4 5 6 6 5 7 8 8 9 8 8 5 4 8 10 10 11 11 10 10 11 11 12 12 12 12 11 10 8 7
20 19 18 17 17 15 13 12 11 9 8 7 5 4 7 9 7 7 6 9 11 11 9 9 8 5 3 6 9 8 10 10 8 8 10 9 10 10 11 10 10 10 9 8
17 16 14 13 11 11 11 10 10 10 8 7 3 4 5 5 5 5 9 10 12 9 9 9 8 6 2 3 7 9 8 8 7 7 8 8 8 8 9 9 9 9 9 8
13 12 10 10 10 10 9 9 8 5 4 3 1 1 4 9 10 10 9 10 12 10 10 8 7 6 5 1 6 9 8 7 7 7 7 7 7 7 7 8 8 8 8 8
12 11 10 11 11 12 11 10 9 9 8 8 9 10 10 12 12 11 9 11 12 14 12 10 7 5 5 7 7 7 7 7 7 8 8 7 6 7 7 7 7 8 7 7
11 12 12 12 12 13 13 14 12 13 12 12 12 11 13 13 12 11 12 12 13 13 14 13 9 5 4 8 8 7 7 8 8 8 7 5 8 7 7 7 7 8 7 5
12 13 13 13 14 15 15 16 17 17 18 16 16 15 12 11 12 11 10 11 12 13 14 14 10 8 8 8 8 7 8 8 8 8 8 8 7 7 7 7 6 7 7 6
14 14 15 16 15 15 16 16 16 16 14 14 13 12 12 10 11 11 11 10 11 10 12 12 11 10 10 10 9 8 8 8 7 7 6 8 8 7 7 7 7 7 6 6
16 15 15 16 18 18 18 16 14 15 13 11 11 11 10 10 9 8 8 9 9 9 9 8 8 7 6 6 7 8 9 8 8 7 7 7 7 8 7 7 7 7 5 5

GFSNGP_sfc_30mbdewp_120.txt.gz
Dewpoint
28 29 30 25 26 27 25 28 25 23 21 23 24 24 24 26 26 25 24 24 25 26 26 28 27 27 27 29 29 31 31 32 33 32 33 33 34 34 34 34 35 36 36 36
28 32 31 25 26 25 26 25 24 22 21 26 26 26 24 24 23 21 21 22 23 24 24 26 27 26 25 27 28 29 29 30 31 32 31 31 32 32 32 32 33 33 33 33
22 30 26 23 25 26 25 24 27 23 24 25 24 22 22 22 21 21 21 22 23 24 25 25 27 25 25 26 27 27 27 28 29 29 30 31 31 31 31 31 31 31 31 32
22 28 20 26 28 25 23 24 25 24 24 24 23 23 23 23 21 21 21 22 23 24 24 25 26 26 25 25 26 26 27 27 28 28 28 29 30 31 31 31 31 30 30 30
23 25 24 26 27 26 25 23 25 26 26 25 25 25 23 22 22 21 21 21 21 21 23 24 25 25 25 25 25 25 26 26 27 28 28 28 29 30 31 30 31 30 30 30
23 22 18 23 27 31 30 22 25 25 26 27 28 24 21 22 22 21 20 19 19 19 19 20 22 23 24 25 25 24 25 26 26 27 27 27 28 29 30 30 30 30 30 30
22 21 22 25 30 32 22 22 25 25 24 24 23 23 22 22 21 20 18 18 18 18 18 18 19 21 22 23 24 26 24 25 26 26 27 28 28 29 29 29 29 29 29 29
22 21 19 28 30 26 27 27 26 25 24 23 23 22 22 21 20 19 17 17 17 17 17 17 18 19 20 21 21 22 22 21 22 23 26 27 27 28 28 28 27 27 27 27
23 22 28 30 29 32 28 27 26 25 24 24 23 22 21 21 20 17 15 15 16 16 16 16 16 16 18 19 19 20 20 20 19 19 20 21 23 24 24 25 25 24 24 25
25 27 28 29 30 32 30 27 26 25 24 24 23 22 21 19 17 14 12 12 14 14 14 14 15 16 16 17 17 16 16 16 17 18 17 18 18 19 20 21 21 21 22 22
25 27 28 29 29 29 28 26 24 23 22 21 20 18 17 16 14 11 10 9 8 8 9 10 13 15 16 16 16 14 14 15 16 16 15 14 16 18 17 19 19 20 20 21
26 28 30 27 29 29 25 23 22 21 20 19 18 17 17 16 15 10 8 7 6 5 5 5 8 13 15 16 16 15 13 14 16 16 16 14 13 13 18 16 16 16 16 18
29 32 30 30 29 25 22 20 19 18 17 17 16 16 16 15 12 10 7 5 5 5 5 5 5 8 13 16 17 18 17 15 15 16 16 15 15 15 15 16 16 14 13 14
28 28 26 25 22 21 20 19 18 16 15 15 14 14 13 13 13 12 10 8 6 6 8 9 9 9 11 14 16 17 17 17 17 17 17 17 16 16 16 15 14 14 14 12
28 30 25 22 21 20 19 18 17 15 14 13 13 13 13 13 13 12 11 8 7 9 9 8 8 8 7 9 12 15 15 15 16 16 16 17 16 15 15 14 13 13 12 11
24 24 23 21 20 19 19 18 17 16 15 14 14 13 11 11 11 12 12 11 10 9 9 10 9 8 7 9 12 12 13 13 13 14 14 14 14 13 12 12 11 11 11 9
22 22 21 20 20 20 20 18 18 17 17 16 15 15 12 12 12 12 12 11 10 10 11 12 10 10 9 10 11 11 11 11 11 11 11 11 12 12 11 11 10 10 10 9
24 24 23 23 21 19 17 16 16 16 16 16 14 9 7 10 11 11 11 11 11 11 11 11 11 9 8 9 9 9 9 9 8 9 8 10 10 9 11 11 10 9 9 9
25 25 24 22 20 17 16 15 15 15 13 11 7 7 8 9 11 12 12 11 12 12 13 12 11 8 5 6 8 6 7 8 7 6 8 7 8 8 9 11 11 10 9 8
23 22 21 19 18 17 17 16 14 11 10 10 8 9 12 12 12 11 12 12 14 13 14 12 9 7 5 4 7 4 6 7 6 6 7 6 8 8 8 8 9 9 11 9
21 20 19 17 16 15 15 14 13 11 11 10 9 11 11 11 11 10 12 10 12 16 13 12 10 6 4 2 3 6 8 7 6 6 6 7 7 6 6 8 8 9 8 9
19 17 15 14 14 13 13 14 14 11 9 8 6 7 9 14 15 14 14 12 10 12 13 12 11 9 6 7 4 9 7 6 6 6 6 6 6 6 6 6 6 7 7 8
17 15 14 14 14 14 14 13 11 11 10 11 12 14 15 14 13 10 9 9 9 11 12 12 16 11 9 10 11 11 10 9 9 8 8 7 7 6 5 5 5 6 8 7
16 15 15 15 15 13 13 14 14 15 15 16 16 15 15 13 12 10 10 11 11 14 14 14 15 15 12 14 13 12 12 11 11 10 10 10 10 8 6 5 5 5 6 7
15 15 15 14 13 14 15 16 16 16 17 15 15 15 13 11 13 13 14 14 12 13 12 14 14 13 13 13 12 11 11 11 11 10 9 10 11 10 8 6 5 5 5 5
15 14 14 14 15 15 14 15 14 15 14 14 13 14 14 14 13 12 11 11 9 9 9 9 10 10 10 10 10 10 11 10 10 10 10 9 9 9 11 10 7 5 5 5
16 16 14 15 15 15 16 17 16 15 15 14 12 13 12 12 11 9 8 9 8 8 8 8 8 7 6 6 6 6 6 6 7 7 6 8 8 8 8 9 11 9 7 5

GFSNGP_sfc_30mbdewp_123.txt.gz
Dewpoint
27 26 28 27 27 26 24 27 25 24 23 24 25 25 26 26 24 23 24 24 25 26 27 28 29 29 31 29 30 31 31 32 33 34 33 33 33 33 33 33 33 34 34 33
28 28 28 29 27 27 26 25 24 23 23 25 25 25 25 24 22 21 22 22 24 24 24 26 26 27 27 28 29 29 29 30 32 32 33 33 33 32 32 32 32 32 32 32
22 27 27 26 26 26 24 23 26 24 24 25 24 24 24 23 22 21 22 22 24 24 25 26 27 27 26 27 28 28 28 29 29 31 31 31 32 32 32 31 31 31 31 31
21 27 20 27 27 25 24 23 23 24 24 23 23 24 24 23 22 22 22 22 23 25 25 26 26 27 27 27 26 27 27 27 28 29 29 30 30 31 31 31 31 30 30 30
21 18 26 27 25 24 23 24 25 25 24 24 24 25 24 23 22 22 21 20 20 21 23 24 26 26 26 27 26 26 27 27 28 28 28 28 29 30 31 30 31 30 30 29
21 18 18 27 26 29 27 22 25 26 26 25 25 25 24 23 23 22 19 19 19 19 19 19 21 23 24 26 27 26 27 28 28 29 28 29 30 30 30 30 30 31 30 30
21 19 23 25 28 32 22 24 26 25 26 27 26 25 23 23 23 21 18 18 18 18 17 17 18 20 21 21 23 27 25 25 27 28 29 29 30 30 30 31 30 30 30 30
20 18 17 28 31 26 28 28 27 25 25 24 24 23 22 22 22 19 17 16 17 17 17 17 16 17 18 18 18 19 20 21 21 22 25 26 28 28 27 28 28 27 27 27
24 24 27 31 32 32 31 30 27 25 25 24 24 23 22 22 21 17 15 15 15 15 15 15 15 15 15 16 15 16 16 17 18 17 17 19 20 22 22 23 24 23 24 24
25 25 26 30 32 34 33 31 27 25 25 24 23 22 22 20 17 13 11 11 11 11 10 11 13 14 14 16 15 14 14 16 16 16 15 14 17 15 17 17 17 19 19 21
26 27 28 30 31 32 32 28 24 23 23 21 20 18 17 16 13 12 10 9 7 7 6 6 8 11 13 15 15 14 14 14 16 17 16 14 16 18 17 18 16 14 16 18
28 28 30 28 30 32 30 26 22 21 20 19 18 17 17 16 12 9 8 7 6 6 6 6 6 8 11 13 14 15 15 14 16 16 16 15 15 15 19 18 17 16 14 14
29 32 31 31 31 31 28 23 21 19 18 17 17 17 16 13 11 10 7 7 6 7 8 9 9 9 10 12 14 16 16 16 15 17 16 16 16 16 16 18 18 19 15 14
32 30 28 29 27 26 20 20 19 17 17 16 15 15 15 13 13 12 11 9 9 10 10 9 9 10 10 11 13 16 16 16 16 17 17 17 17 17 17 16 16 16 16 13
29 30 27 27 22 21 20 18 17 15 15 15 15 15 15 14 14 12 10 9 9 9 8 8 10 9 9 10 12 15 14 15 15 16 16 15 16 15 15 14 13 13 13 13
28 27 24 21 20 20 20 18 16 15 15 14 13 12 12 11 12 13 13 13 12 10 11 13 11 11 11 11 12 13 13 13 12 13 14 13 13 13 12 12 12 12 12 14
25 23 22 21 20 21 20 19 18 18 17 18 17 14 13 13 14 14 14 14 14 13 13 13 12 12 12 11 11 12 12 11 10 10 10 10 11 11 9 11 11 10 10 15
24 24 23 22 22 21 19 19 18 18 18 18 16 13 12 14 14 13 14 14 14 14 14 14 13 12 11 9 9 8 8 9 8 8 7 8 8 8 10 10 11 14 11 10
25 25 25 24 23 20 17 17 17 18 18 14 10 11 12 13 14 15 15 14 14 15 20 16 13 11 8 7 6 6 7 8 8 6 7 8 7 9 9 12 10 9 13 11
26 26 24 22 20 18 19 19 17 14 13 12 13 13 14 14 14 14 14 15 16 16 16 14 13 10 8 6 4 4 7 8 7 6 8 7 10 10 9 9 8 9 10 13
25 24 22 21 20 19 18 17 14 12 13 12 13 13 14 14 14 14 14 11 15 15 13 13 12 10 7 7 5 5 9 10 8 8 9 9 9 10 9 9 10 11 12 12
23 21 19 17 17 17 17 16 15 14 13 12 10 11 13 15 18 17 17 13 10 10 11 9 8 13 12 10 7 10 11 10 10 10 10 12 11 10 10 10 8 9 10 12
21 18 17 17 16 16 16 16 14 13 13 13 13 15 16 14 13 11 10 13 10 12 10 10 13 14 15 14 13 14 15 14 14 13 13 14 14 12 11 10 10 8 7 9
20 18 17 18 17 15 14 14 14 15 16 18 18 17 16 13 13 11 11 12 12 13 11 14 16 13 13 12 14 14 15 14 13 13 13 12 11 12 14 14 11 9 9 9
19 18 18 16 13 13 15 14 15 14 15 14 14 16 14 12 12 12 12 13 11 9 9 11 11 13 9 11 13 11 9 11 13 12 9 12 12 11 11 11 12 14 11 9
17 16 16 14 15 15 14 14 14 14 13 15 15 18 15 14 12 11 11 10 9 9 9 10 12 9 9 8 7 6 9 8 8 9 8 8 8 9 9 9 9 9 14 12
17 16 15 15 15 14 14 15 15 15 15 16 13 16 11 11 11 9 8 9 8 7 7 6 6 6 5 4 2 3 2 3 6 5 1 3 5 6 8 9 8 11 8 11

GFSNGP_sfc_30mbdewp_129.txt.gz
Dewpoint
28 29 28 28 32 26 25 25 23 27 25 25 25 25 24 24 23 22 23 23 23 25 26 26 27 28 27 27 27 29 30 30 31 32 32 32 31 31 31 31 32 32 31 31
26 24 26 26 31 26 27 25 25 25 23 26 27 25 23 23 22 21 22 23 23 24 26 26 26 26 27 26 26 27 27 28 29 30 30 31 31 31 30 30 30 29 29 29
21 26 30 25 27 27 27 28 27 24 26 26 24 24 23 23 22 21 21 23 22 24 27 25 26 27 27 26 27 26 26 27 28 28 29 29 29 30 30 28 29 28 28 27
24 21 16 27 30 31 27 25 26 26 25 26 25 24 24 24 22 21 21 21 21 21 25 25 24 25 28 28 26 26 26 26 26 27 27 28 28 28 29 30 28 27 26 26
20 19 24 26 26 25 25 25 25 25 25 24 25 24 24 23 24 22 20 19 19 19 19 23 22 22 25 25 26 24 26 27 27 26 24 25 26 27 27 28 28 27 26 25
22 20 16 26 28 30 28 24 26 25 25 25 25 24 23 23 23 24 19 18 17 17 16 15 18 19 19 22 21 22 22 23 27 26 24 21 22 24 25 24 25 25 26 23
23 22 23 28 29 30 22 23 27 26 25 25 25 25 24 23 23 23 17 18 17 15 14 14 15 16 16 17 19 21 21 20 23 23 24 21 19 19 21 21 20 21 22 21
26 21 18 30 29 26 28 28 27 27 26 25 25 24 23 22 21 20 14 13 14 13 13 13 13 14 15 15 16 17 19 21 20 22 21 22 19 19 18 18 16 17 18 18
26 25 29 33 33 33 31 28 28 28 28 27 25 24 23 21 21 12 10 9 9 9 9 10 10 11 12 14 15 17 18 18 19 19 20 21 21 19 18 18 16 15 14 15
25 28 29 32 34 34 34 32 31 30 29 27 24 23 21 21 19 9 8 8 8 8 8 8 9 10 11 14 16 16 16 17 19 19 18 20 20 20 18 17 16 15 14 14
26 29 30 32 32 33 33 33 32 32 29 25 23 23 22 13 10 8 8 9 10 10 9 9 9 10 11 13 16 17 18 17 18 20 19 18 20 20 18 19 18 15 14 14
24 27 26 29 32 32 30 30 31 31 30 27 21 15 12 10 9 9 9 10 10 10 10 11 9 10 12 14 15 18 19 16 18 19 20 18 19 19 21 20 20 20 16 14
30 31 30 31 31 31 30 30 31 29 25 21 18 14 12 12 12 12 12 11 10 10 11 11 11 11 13 14 15 16 18 15 16 18 18 18 18 17 16 17 20 24 19 16
31 31 29 29 28 30 30 29 26 20 19 17 15 15 16 15 14 12 12 12 11 11 12 12 11 10 13 13 13 14 16 16 15 14 15 16 15 15 13 13 13 14 20 14
29 29 28 28 28 28 24 19 18 17 17 18 18 16 16 15 14 14 13 13 12 12 13 13 11 9 12 14 12 13 15 15 11 12 14 13 13 11 11 12 13 13 16 13
29 28 28 28 28 22 19 18 17 17 17 17 17 16 16 16 16 13 14 12 6 9 13 14 12 11 12 12 9 11 11 14 11 11 12 12 11 9 11 13 12 13 13 15
27 28 27 23 21 20 19 18 18 18 18 16 16 16 16 15 15 14 13 15 14 13 13 15 13 11 12 12 8 7 8 13 10 11 11 11 10 10 12 11 10 12 11 12
28 26 24 22 21 21 20 20 20 19 17 17 16 15 15 16 13 13 13 14 13 14 15 15 13 13 12 13 9 7 8 9 12 11 11 10 10 10 12 10 10 11 10 12
27 26 24 23 23 22 21 20 21 20 17 14 12 12 12 13 14 14 13 12 15 16 16 16 16 16 14 13 8 7 8 10 12 13 11 12 10 11 11 10 11 9 10 10
27 26 25 24 22 21 20 20 19 17 13 11 12 11 11 11 11 11 12 13 15 18 14 13 12 13 15 11 10 10 12 11 12 13 13 13 11 11 11 11 11 10 9 9
25 24 22 20 19 19 18 17 15 12 13 12 10 12 13 14 13 12 13 17 17 13 12 11 18 16 15 13 12 12 12 12 12 13 14 14 14 13 13 12 12 12 11 10
21 20 19 18 18 17 15 14 12 12 12 14 13 13 12 11 13 14 15 17 14 12 12 17 15 12 11 11 13 12 13 12 11 12 11 11 11 11 11 10 10 11 10 10
19 18 18 17 16 15 15 12 11 10 12 12 10 10 14 15 16 15 17 18 13 11 15 15 13 9 9 11 11 9 7 7 9 8 8 9 9 8 8 7 8 9 7 8
19 18 18 18 18 17 14 14 14 12 11 10 11 16 16 15 17 16 16 14 11 11 14 13 10 9 10 9 6 5 5 5 6 6 5 4 3 2 3 5 4 3 2 4
19 19 19 18 18 17 15 15 15 15 17 17 18 16 16 15 12 14 12 12 10 10 10 8 7 7 6 3 3 4 2 3 3 3 0 -0 0 2 2 1 -1 -0 1 3
20 20 18 18 17 17 15 15 16 16 17 17 19 19 16 15 13 13 12 10 9 8 6 5 4 4 1 2 2 -0 1 1 1 -4 -3 -2 0 -2 -3 -4 -3 -2 1 3
20 20 19 18 18 18 16 16 19 19 21 21 18 17 15 12 11 10 8 7 6 4 3 3 2 1 -1 1 -0 -2 1 -0 -5 -6 -4 -1 -4 -6 -7 -6 -3 -1 0 -3

GFSNGP_sfc_30mbdewp_132.txt.gz
Dewpoint
26 27 27 26 26 29 30 27 24 22 25 26 26 26 24 24 23 22 23 22 22 25 24 25 26 26 26 25 26 26 27 29 30 31 31 31 30 30 29 29 29 30 29 30
20 25 27 25 25 27 29 27 25 25 25 27 27 25 24 23 22 21 22 21 22 25 23 23 24 26 26 25 26 25 24 25 26 28 28 29 30 28 28 27 27 27 28 29
19 22 24 23 27 28 28 28 25 23 25 26 25 24 23 23 22 21 21 21 20 24 24 23 23 24 26 26 24 26 24 23 21 24 25 26 27 28 26 25 25 25 26 27
21 23 15 19 30 31 28 28 27 26 26 26 25 25 24 23 22 21 21 20 19 18 20 23 21 21 24 23 24 23 24 23 20 18 21 23 23 24 26 25 22 22 23 24
21 20 19 24 27 27 28 26 26 25 25 24 24 24 23 23 24 23 20 19 17 17 17 18 19 20 20 23 22 22 23 24 22 20 18 18 20 20 22 21 21 19 19 21
25 19 13 24 28 29 29 24 26 26 25 24 24 22 23 23 23 23 19 17 15 14 14 15 16 17 18 19 21 21 22 23 24 21 20 19 19 18 18 19 19 18 17 17
22 21 20 28 29 30 23 22 27 26 25 24 24 25 26 23 23 24 17 15 14 13 12 12 13 15 15 16 18 20 21 21 22 23 21 20 19 19 17 16 16 16 16 16
22 21 16 31 27 25 27 28 27 27 26 26 25 26 23 23 22 16 14 13 11 10 10 10 11 12 14 15 17 18 20 20 20 20 22 20 19 18 17 16 15 14 13 14
25 22 30 33 32 31 28 27 28 26 26 25 26 26 22 21 17 12 9 9 9 9 8 9 9 11 13 15 17 17 18 20 19 18 20 21 19 19 17 16 15 14 13 13
25 27 29 33 33 32 31 29 29 28 27 27 25 25 22 19 12 9 7 8 9 8 7 5 8 10 12 15 18 18 16 18 20 19 18 20 20 19 18 17 15 14 12 12
26 28 30 31 33 33 31 30 29 28 27 26 25 22 22 12 9 9 10 10 10 9 5 6 8 10 13 15 17 17 14 16 18 19 19 18 19 20 20 21 19 16 13 11
21 28 26 29 32 33 31 30 29 28 27 26 25 26 14 11 10 11 11 10 10 9 8 8 8 10 12 14 16 18 13 15 17 17 18 18 18 15 17 20 23 20 18 15
28 29 28 32 32 30 29 30 31 30 30 25 21 16 12 11 12 13 11 10 10 10 9 8 9 10 12 14 15 16 17 14 14 15 17 16 14 12 13 14 17 21 18 15
31 30 28 30 28 30 30 30 29 27 24 25 20 15 14 14 13 13 12 11 10 11 11 9 9 10 12 13 12 12 14 12 11 12 12 9 9 10 11 11 11 12 17 16
30 29 29 29 30 30 30 28 19 18 17 17 17 15 14 14 14 14 14 12 12 13 14 11 8 10 12 13 10 9 13 12 9 11 11 9 8 10 11 10 11 11 12 13
28 28 28 28 28 28 23 18 18 18 18 17 17 16 16 15 14 14 12 11 8 10 14 14 11 10 12 12 9 7 8 12 9 10 9 10 8 9 11 9 9 10 9 11
27 27 27 26 27 21 19 18 19 19 19 18 17 17 15 12 11 10 13 14 12 12 13 14 14 11 11 11 11 7 7 10 12 11 11 10 9 9 11 10 8 10 9 9
29 29 28 27 22 20 19 19 19 18 17 17 16 15 13 11 9 10 14 13 13 15 14 14 14 13 13 12 12 9 9 11 12 12 13 12 11 11 10 11 10 10 9 10
28 27 24 23 22 21 20 19 19 18 17 15 14 13 14 11 11 12 12 14 14 13 12 14 15 16 14 14 10 11 12 11 12 13 12 13 12 11 11 11 10 10 10 10
26 24 24 23 22 21 20 19 17 15 14 13 12 12 11 12 11 11 11 14 15 16 13 15 16 15 15 13 12 13 12 11 11 11 12 11 10 10 10 10 10 9 9 9
26 24 22 21 19 19 18 17 16 14 11 11 10 8 7 9 11 11 15 16 16 12 15 16 14 13 11 12 13 10 8 7 8 10 8 8 8 8 8 7 7 8 7 7
21 20 19 18 18 16 16 15 14 11 10 9 9 11 13 12 12 13 14 15 12 14 15 13 10 8 10 10 7 6 7 7 6 6 5 5 4 3 3 4 5 4 2 3
19 18 17 17 17 16 15 13 11 11 11 11 13 11 14 16 16 16 14 16 13 15 13 9 8 8 5 4 3 2 2 3 3 2 1 0 -0 -0 0 1 0 -1 -0 0
18 17 16 16 16 14 13 11 11 12 12 12 9 13 17 15 15 16 14 11 12 11 8 7 6 2 2 2 -0 1 1 0 -1 -3 -3 -2 -4 -2 -2 -4 -5 -4 -3 -2
18 18 17 17 15 14 12 12 12 11 12 12 14 16 16 15 13 12 10 10 9 6 4 4 1 1 0 -2 -2 -1 -1 -3 -7 -6 -5 -5 -4 -6 -7 -8 -7 -6 -5 -2
19 18 18 18 17 16 14 14 13 16 16 17 17 16 14 14 12 11 9 7 5 4 2 0 -2 -1 -1 -4 -5 -3 -3 -7 -9 -6 -6 -6 -8 -10 -10 -9 -8 -5 -4 -8
20 19 18 18 18 17 14 16 16 15 17 18 17 15 12 11 9 7 4 2 1 0 -0 -3 -5 -4 -3 -6 -6 -3 -3 -6 -7 -6 -8 -10 -12 -12 -12 -8 -7 -8 -9 -12

GFSNGP_sfc_30mbdewp_135.txt.gz
Dewpoint
28 27 25 25 25 24 25 27 24 21 23 26 27 27 25 22 22 22 21 21 22 22 23 23 23 25 25 24 25 23 20 20 24 27 28 28 28 26 27 27 29 30 30 31
21 22 22 21 23 25 24 25 28 28 26 28 28 26 23 23 22 21 21 20 22 23 23 22 22 22 24 24 24 22 21 18 19 20 22 24 25 25 23 24 24 26 27 28
17 20 20 20 23 24 26 29 28 26 26 27 25 24 24 23 21 20 21 19 18 20 20 21 21 21 23 23 24 23 21 19 18 19 18 19 20 20 20 19 21 21 24 26
20 23 15 18 29 29 29 29 28 27 26 26 25 25 25 23 21 21 21 18 17 17 18 19 20 20 21 23 23 22 23 20 19 18 18 16 17 18 19 18 18 19 21 24
20 19 18 20 27 28 28 27 28 27 26 25 24 23 23 23 23 21 19 18 16 16 17 17 18 19 19 20 21 22 22 23 21 19 18 18 17 17 17 17 17 18 19 21
25 19 17 19 28 29 29 24 27 26 25 24 23 21 21 24 24 21 18 15 14 13 12 12 14 17 18 18 20 21 21 22 23 21 20 19 19 17 17 16 16 17 18 19
24 21 22 26 29 30 23 19 27 26 25 24 23 24 24 24 23 18 15 13 12 11 10 10 12 15 16 17 18 20 21 20 21 22 20 20 19 18 18 16 15 15 17 18
23 21 17 30 27 25 26 27 27 27 26 25 26 24 23 22 21 16 13 10 9 7 8 9 10 13 15 17 18 18 20 20 19 20 21 21 19 18 17 16 14 14 14 16
20 20 29 32 31 31 28 27 26 26 26 26 24 23 22 21 17 14 10 9 8 5 3 7 9 13 15 17 19 16 18 19 19 19 19 20 20 19 17 17 15 13 12 14
28 29 29 33 32 31 29 28 27 27 27 26 25 22 19 14 13 9 8 8 6 2 3 4 9 13 15 17 18 14 15 17 17 18 17 17 19 19 19 19 17 15 12 12
28 28 29 32 33 30 29 28 27 27 28 27 25 18 13 15 17 15 10 10 7 3 3 5 8 12 14 16 17 12 13 15 16 17 17 15 13 16 18 21 19 17 15 13
26 27 26 28 33 30 29 28 27 26 27 28 23 20 20 21 17 11 10 10 7 5 5 6 7 11 13 15 17 16 13 13 16 17 15 11 12 13 15 17 18 16 14 13
26 29 28 32 33 31 29 28 28 26 25 26 25 23 24 22 13 12 11 9 8 7 7 7 8 10 12 13 14 14 13 12 14 12 10 11 12 11 9 12 14 16 14 13
30 31 29 31 29 30 29 28 29 28 27 24 22 22 18 14 14 11 10 10 9 8 8 9 9 10 12 12 11 12 11 10 11 10 8 8 9 10 7 9 9 9 12 12
29 29 30 30 30 30 30 29 27 26 25 24 23 21 16 16 15 14 12 10 11 11 10 9 9 10 12 12 9 9 12 10 9 9 9 7 7 10 9 7 9 8 8 9
29 29 29 29 29 29 29 20 19 22 22 21 19 15 15 15 14 14 13 12 11 13 15 12 11 10 12 12 11 8 8 10 11 10 10 9 8 8 10 10 8 9 8 8
27 27 28 28 28 28 24 20 20 21 19 17 17 16 14 12 12 11 10 10 10 12 14 14 14 12 12 11 11 10 8 10 11 11 11 12 11 11 11 10 10 9 9 7
28 28 28 27 26 21 20 20 20 19 18 17 16 14 11 8 8 11 12 12 13 14 14 14 14 13 14 13 11 11 12 12 12 12 13 12 11 11 10 10 9 8 8 9
29 28 28 27 22 20 20 20 19 18 17 16 14 12 9 9 10 12 12 14 12 10 13 13 15 15 13 14 12 13 11 9 10 11 10 9 7 7 7 6 6 6 6 6
28 27 26 24 22 21 19 18 17 16 15 14 12 11 9 9 11 10 13 14 13 13 15 16 16 13 12 13 11 9 7 8 9 7 6 6 5 4 4 4 4 4 2 2
25 24 23 21 19 18 17 16 15 14 13 12 12 13 10 11 9 10 14 16 13 14 15 13 11 11 12 9 7 6 6 4 4 4 2 1 1 0 0 0 1 -0 -2 -1
22 21 19 18 18 17 16 15 14 12 12 11 10 8 8 10 11 12 14 14 14 15 13 10 10 8 7 6 4 3 3 2 1 0 -2 -2 -3 -4 -4 -3 -5 -5 -5 -4
20 19 18 18 17 16 15 14 13 12 10 8 7 9 11 14 14 15 13 14 15 12 9 8 5 3 2 0 0 -0 -1 -3 -4 -5 -4 -6 -6 -6 -6 -8 -8 -8 -8 -7
18 18 17 17 16 16 15 12 12 11 10 11 12 12 16 15 15 15 14 14 11 8 6 2 1 1 -1 -2 -2 -2 -5 -7 -7 -7 -6 -6 -9 -10 -10 -10 -10 -10 -9 -8
18 17 17 17 17 16 14 12 12 12 13 12 11 16 16 15 13 13 11 9 7 5 2 -0 -0 -3 -4 -4 -3 -4 -8 -10 -9 -8 -9 -9 -12 -14 -14 -12 -12 -11 -9 -10
19 18 18 17 16 14 13 12 12 13 13 14 17 15 14 13 11 10 8 6 4 2 -1 -2 -2 -5 -7 -6 -5 -5 -8 -9 -8 -9 -10 -13 -14 -15 -16 -16 -13 -12 -12 -13
20 19 18 18 17 15 14 14 13 14 15 16 14 12 11 10 8 6 4 2 -0 -2 -6 -6 -5 -6 -8 -7 -6 -6 -6 -8 -10 -11 -14 -15 -17 -18 -18 -18 -17 -16 -15 -16

GFSNGP_sfc_30mbdewp_138.txt.gz
Dewpoint
26 27 28 27 25 24 23 23 23 21 22 22 27 27 26 24 23 23 20 21 22 20 20 21 22 23 23 23 23 20 19 18 19 20 22 22 22 22 22 22 25 28 28 28
21 22 22 21 21 21 21 22 24 23 23 28 28 28 25 23 23 21 20 19 21 19 20 20 21 21 23 23 23 22 19 18 18 19 17 20 20 21 20 21 23 24 27 27
19 20 22 18 17 20 22 25 24 23 25 28 26 26 24 23 22 21 19 18 18 18 19 19 20 21 22 22 23 22 21 19 19 18 18 17 16 17 19 19 20 22 23 25
21 22 14 14 25 27 27 28 29 27 27 27 26 25 25 23 22 22 19 18 17 16 17 18 19 20 21 22 22 22 21 20 19 18 18 17 17 16 17 18 19 19 21 22
21 19 18 18 20 28 27 24 29 28 26 25 24 23 23 23 22 22 19 17 16 16 16 16 17 19 20 21 21 21 21 21 21 19 18 18 17 17 16 17 18 18 18 20
22 18 14 19 27 29 29 18 28 27 26 24 23 23 22 24 23 19 16 14 12 11 11 13 15 18 19 19 20 21 20 21 22 21 20 18 18 17 16 15 17 18 17 17
21 20 22 24 28 29 21 16 27 27 25 24 24 24 24 24 20 16 13 11 10 9 9 11 13 17 17 18 18 20 20 20 20 21 20 20 18 18 16 15 15 16 17 18
23 21 17 29 28 25 26 27 27 27 25 24 25 24 23 21 17 14 12 9 6 6 8 10 14 16 17 17 17 18 19 19 18 18 20 20 20 19 18 16 14 14 15 17
23 21 28 31 31 31 29 27 27 26 26 26 24 24 23 19 17 12 9 6 4 3 6 11 14 16 16 17 16 16 17 16 17 16 15 17 18 18 20 18 15 14 14 14
25 26 27 31 33 31 29 28 27 27 26 25 23 22 20 19 15 10 8 4 2 2 5 10 13 15 16 16 16 14 14 15 14 14 11 11 16 17 19 18 15 15 13 13
29 29 29 30 32 30 28 27 27 27 27 24 22 19 16 18 19 12 9 5 3 2 4 9 12 14 15 16 16 12 12 13 14 11 10 12 13 14 15 18 15 15 14 13
25 29 28 27 33 29 28 27 28 27 27 23 18 15 19 22 22 12 10 5 4 2 4 7 12 13 14 15 13 11 11 12 12 11 11 11 11 8 10 12 12 12 11 12
30 29 28 32 31 30 28 28 27 27 27 21 20 22 23 21 13 12 9 6 5 5 6 7 11 11 13 14 13 12 13 12 11 10 10 10 11 8 5 8 11 10 10 8
30 31 30 31 30 30 28 28 27 26 27 23 23 24 22 14 13 10 9 8 8 8 9 9 10 10 12 12 12 11 11 10 10 11 9 8 8 9 7 6 6 7 9 11
30 29 30 31 31 29 28 28 26 25 23 22 23 21 16 14 13 12 11 9 9 10 9 9 10 11 12 12 10 9 12 12 10 9 9 9 8 7 8 9 8 8 8 9
29 30 30 30 29 29 29 27 25 24 23 23 21 18 16 16 14 12 12 12 10 12 13 10 10 11 12 12 11 9 8 10 10 10 10 11 11 11 11 10 9 9 8 8
28 27 29 28 27 28 26 25 24 23 22 22 20 17 16 14 13 12 11 12 12 13 14 13 14 13 12 12 12 9 10 11 11 12 12 11 10 10 10 9 8 7 6 6
29 29 29 29 29 27 22 21 23 22 20 18 16 14 13 12 12 11 9 10 12 13 13 13 13 13 11 11 11 12 11 10 11 11 10 8 7 8 6 5 5 4 4 5
29 28 28 29 27 24 21 21 21 20 18 16 14 12 11 10 10 9 11 13 12 12 13 13 16 14 14 14 11 9 8 8 9 7 7 6 2 2 2 2 2 -0 -1 -0
28 28 27 24 23 22 20 19 18 17 16 14 12 10 7 8 10 10 12 11 11 12 15 15 13 12 12 8 7 7 6 5 5 3 1 -0 -2 -2 -2 -1 -1 -5 -6 -5
27 26 25 23 20 19 18 17 16 15 14 13 11 9 7 9 10 11 14 14 14 15 13 11 11 11 8 6 6 4 3 2 0 -1 -3 -5 -5 -5 -6 -9 -9 -9 -8 -8
24 23 21 19 18 16 15 15 15 14 13 12 11 9 9 9 9 11 13 14 15 14 11 10 9 6 5 4 3 1 1 -1 -4 -5 -6 -5 -7 -8 -10 -11 -10 -10 -11 -11
21 20 18 17 17 15 15 14 13 13 12 11 11 10 10 11 13 14 13 15 14 10 10 7 3 1 -0 -1 -1 -3 -5 -7 -7 -7 -8 -9 -11 -12 -12 -12 -12 -13 -13 -11
18 17 17 16 16 16 15 13 13 12 11 11 10 11 13 14 15 15 15 14 11 9 5 2 1 -1 -1 -3 -3 -6 -9 -10 -9 -9 -9 -10 -14 -16 -16 -16 -14 -14 -13 -13
18 18 17 17 18 17 16 14 12 11 11 11 12 16 16 15 13 13 11 9 7 4 1 0 -2 -3 -4 -4 -5 -8 -10 -11 -10 -10 -11 -14 -15 -16 -18 -18 -18 -18 -16 -16
19 18 19 19 18 17 14 13 12 13 13 13 16 15 13 12 11 9 7 5 3 0 -0 -2 -5 -6 -6 -6 -7 -8 -9 -9 -10 -12 -14 -15 -17 -18 -19 -19 -20 -19 -19 -19
20 20 19 17 15 14 13 13 13 13 14 15 13 11 10 9 8 7 5 3 -0 -2 -4 -4 -6 -8 -8 -8 -8 -8 -10 -12 -14 -14 -16 -18 -20 -21 -21 -22 -22 -22 -21 -20

GFSNGP_sfc_30mbdewp_141.txt.gz
Dewpoint
26 25 25 25 25 24 22 23 21 20 20 22 24 27 28 28 24 22 22 22 21 21 21 22 22 22 20 20 19 17 17 17 19 20 20 20 21 22 23 23 25 27 27 28
22 23 23 22 23 23 23 23 22 21 21 24 28 29 28 26 23 23 20 20 18 19 19 20 19 19 19 19 19 18 16 16 15 15 14 18 19 20 21 22 22 24 25 26
17 21 21 17 19 20 20 22 21 19 21 28 28 28 27 25 23 22 19 19 19 20 20 20 20 20 20 20 19 18 17 16 16 15 14 14 14 17 18 19 20 21 22 23
18 22 12 14 20 24 24 24 26 27 28 28 28 27 27 25 23 21 18 17 18 20 19 20 20 20 20 20 19 19 18 17 16 15 14 14 14 15 16 16 17 18 20 21
21 17 17 19 18 22 27 23 25 28 28 26 25 25 24 24 23 21 19 18 17 17 19 19 20 20 19 20 19 19 19 20 17 16 15 15 15 15 15 17 17 16 17 18
23 17 12 16 24 30 29 19 27 28 27 25 24 24 25 24 23 20 17 14 13 13 14 16 18 19 18 19 20 19 19 20 21 19 18 17 17 16 15 15 16 18 16 16
21 19 18 24 28 30 21 19 28 28 27 25 25 26 25 23 21 17 13 10 9 10 13 14 16 17 17 16 18 19 17 16 18 19 19 19 19 17 16 15 15 17 17 16
21 19 15 29 28 25 27 29 28 27 27 25 26 25 24 21 17 13 10 7 5 7 11 15 15 13 15 15 15 15 15 14 13 13 15 17 19 17 16 15 15 15 14 15
21 20 26 30 29 31 31 29 28 28 27 26 25 24 22 19 16 12 5 -0 1 5 11 14 15 15 13 14 14 14 12 11 9 8 11 14 15 16 15 14 13 12 13 14
23 24 26 30 32 33 31 29 28 28 27 26 25 23 20 17 14 9 3 -1 -0 5 10 13 14 14 15 14 13 12 11 9 7 7 8 10 10 11 13 12 12 11 11 12
27 28 30 30 31 32 30 28 27 27 27 25 24 21 18 17 18 8 3 -0 -0 3 9 12 14 14 13 13 11 10 10 8 6 7 5 5 5 10 10 12 11 10 12 12
24 27 27 29 32 31 28 27 27 27 25 24 22 20 20 22 17 10 5 1 -0 2 8 11 13 13 13 11 10 9 8 7 7 7 7 6 5 3 9 10 9 10 9 11
29 31 30 32 31 29 28 28 28 27 24 21 18 20 24 22 16 11 4 1 1 2 5 11 11 12 13 12 10 11 9 8 9 9 8 8 9 9 8 10 11 12 13 12
31 31 30 31 30 29 28 28 28 27 21 20 21 22 23 17 14 9 4 3 4 5 5 9 11 12 14 15 14 14 13 12 12 13 13 13 12 12 13 12 11 11 13 12
31 29 30 32 31 29 28 27 26 25 22 22 22 21 17 15 12 11 9 6 8 10 11 11 11 12 13 13 12 13 12 13 13 13 14 13 14 14 13 12 11 11 10 9
30 30 31 31 29 28 27 26 25 24 23 23 22 19 16 14 13 11 8 9 8 8 9 11 12 13 14 14 12 12 13 12 12 13 13 12 12 12 11 10 9 9 8 7
29 28 29 29 29 29 27 26 25 24 23 22 20 18 17 15 13 13 13 13 14 13 13 13 14 14 14 14 14 13 13 11 12 11 11 10 10 9 8 8 7 6 6 6
30 30 30 30 29 29 27 26 25 24 23 22 18 17 15 13 12 12 12 13 14 14 15 15 15 12 12 13 13 11 10 10 9 9 8 7 7 6 5 4 3 2 2 1
29 29 30 30 29 27 25 25 24 23 21 19 17 16 14 13 13 11 11 13 14 14 14 14 15 15 14 12 8 8 8 8 7 5 5 3 2 1 1 1 1 -1 -2 -3
29 29 30 29 27 24 23 22 21 20 18 17 14 13 12 11 11 10 13 13 13 13 16 16 13 12 9 7 6 5 6 5 3 3 1 -0 -0 -0 -1 -3 -4 -4 -4 -4
28 27 26 25 24 23 22 20 19 18 15 14 13 11 10 10 10 12 13 12 14 16 15 12 12 9 6 5 4 5 5 3 2 -0 -1 -2 -2 -3 -4 -5 -5 -6 -6 -6
26 25 23 22 21 19 17 18 17 15 14 12 10 9 8 10 11 14 15 14 15 13 12 11 9 7 5 4 3 4 1 -0 -2 -2 -3 -3 -5 -6 -6 -7 -8 -8 -7 -7
24 23 21 19 19 17 16 16 15 15 14 12 10 9 10 11 13 15 14 15 15 12 11 8 5 2 1 3 2 0 -2 -3 -4 -4 -4 -5 -7 -8 -9 -10 -10 -9 -10 -9
20 19 18 16 16 16 16 15 15 15 14 13 11 12 12 13 16 16 15 14 12 11 8 5 3 1 1 1 -0 -2 -3 -4 -5 -5 -5 -9 -8 -9 -9 -11 -12 -12 -13 -13
19 18 17 17 17 17 15 14 14 13 12 12 12 13 14 16 16 15 14 11 9 6 5 1 0 -1 0 -1 -1 -3 -5 -5 -6 -6 -7 -8 -9 -11 -12 -13 -15 -15 -15 -15
19 19 19 19 19 17 16 15 14 13 13 13 15 16 16 14 13 12 10 8 5 3 3 1 -1 -2 -2 -2 -3 -5 -5 -6 -6 -8 -9 -10 -12 -13 -15 -16 -16 -16 -16 -15
21 21 20 20 19 18 16 15 14 14 13 15 14 13 12 12 11 9 7 5 4 2 1 -1 -3 -4 -4 -4 -4 -5 -6 -7 -10 -10 -11 -13 -14 -15 -16 -17 -17 -17 -16 -16

GFSNGP_sfc_30mbdewp_144.txt.gz
Dewpoint
17 17 19 18 17 17 14 15 16 19 16 16 18 21 23 30 30 26 25 23 24 25 25 24 22 20 17 17 17 16 15 16 19 22 23 23 23 24 24 24 25 25 25 25
25 20 19 17 22 21 20 18 17 17 17 20 23 29 31 31 27 24 23 22 20 20 19 20 17 16 17 16 17 16 14 14 14 14 13 17 19 20 19 21 22 23 24 23
12 12 15 15 20 22 19 16 17 17 19 22 26 29 31 29 26 25 22 21 19 21 21 20 18 18 18 17 18 17 15 14 13 13 12 14 14 16 16 15 19 20 21 21
13 13 11 16 17 16 15 17 19 19 19 20 27 31 31 30 27 25 21 20 22 24 22 21 19 18 18 18 17 19 18 15 15 14 14 14 14 15 16 16 15 15 17 17
16 11 12 13 14 15 16 18 22 24 25 28 28 28 28 28 27 24 21 20 20 21 23 22 20 18 18 19 18 18 19 20 18 17 16 16 16 16 15 17 17 16 16 15
18 17 10 10 15 26 25 18 27 27 28 28 27 27 29 27 25 23 21 18 16 16 16 16 18 17 17 19 19 19 18 19 20 19 19 18 18 17 16 16 18 18 17 16
19 17 15 15 24 28 21 21 29 29 28 28 27 29 29 26 25 21 17 14 13 12 12 12 14 15 14 15 18 18 15 14 16 18 18 20 19 18 18 17 17 17 18 18
17 16 14 26 29 22 27 31 30 29 29 31 29 28 27 25 22 16 12 10 7 9 11 12 11 10 11 12 12 12 12 8 8 12 15 16 17 16 16 15 15 15 16 16
17 14 24 29 25 28 32 28 29 33 30 30 29 28 26 23 19 14 9 3 1 5 10 12 10 9 9 11 11 11 6 5 5 7 8 8 10 12 13 13 12 12 12 14
21 23 21 22 26 31 32 33 32 31 31 30 29 27 24 21 17 11 3 -2 -2 5 8 10 11 10 11 11 10 8 5 3 3 3 2 4 6 7 9 10 10 11 12 12
23 24 26 27 29 32 34 32 30 29 29 28 28 25 21 19 15 12 4 -2 -1 4 7 9 9 9 10 10 8 6 4 2 3 4 3 1 5 7 8 11 10 10 12 13
24 25 25 29 32 34 33 31 29 28 27 27 26 23 20 19 20 12 4 -1 -2 3 7 9 9 9 8 7 7 5 3 4 7 6 6 5 4 5 11 11 12 12 12 12
25 27 32 35 34 33 32 30 29 28 27 26 25 22 21 24 18 12 6 -0 -2 2 7 9 9 10 11 9 8 8 7 7 9 10 9 9 10 10 10 12 12 13 12 12
22 28 31 33 32 31 30 29 29 28 25 24 23 23 25 22 18 12 4 -1 -1 1 6 8 12 15 16 15 15 15 14 14 13 13 13 12 13 13 13 12 12 12 12 10
25 31 31 32 31 30 30 29 28 25 23 22 23 26 24 20 17 10 6 3 2 5 9 12 14 14 15 15 14 15 13 14 14 14 13 13 13 12 11 10 9 9 9 7
29 31 31 31 30 30 29 28 27 24 23 23 23 23 21 19 15 11 6 5 5 6 7 11 13 14 14 13 14 15 15 13 12 12 12 11 11 10 9 8 7 7 6 7
31 30 30 31 30 29 28 28 27 25 24 23 23 22 21 17 15 12 12 12 15 14 14 14 15 16 17 17 16 14 13 11 11 9 9 8 8 7 6 5 5 4 4 5
31 31 31 31 30 30 29 28 27 26 26 25 23 21 19 17 16 15 15 16 16 15 15 17 17 16 16 16 14 11 9 8 7 7 6 6 4 3 4 3 2 2 1 0
31 31 31 31 31 30 29 28 27 26 26 23 21 20 19 18 16 15 16 16 15 14 16 17 16 16 15 12 8 7 7 7 5 3 3 2 3 2 2 2 1 1 1 0
31 31 31 31 30 30 29 29 27 25 24 22 21 20 18 17 16 15 15 15 15 15 17 16 14 12 10 8 7 5 6 6 2 3 3 2 3 3 2 -1 -2 -0 0 -0
32 32 31 30 28 28 27 26 25 23 22 21 21 19 17 16 15 15 15 14 17 17 16 15 13 10 7 5 4 7 6 5 4 3 2 2 1 0 -0 -0 -1 -1 -1 -2
30 29 28 27 26 24 24 25 24 21 20 19 18 17 16 15 15 15 16 13 15 16 14 12 10 8 6 4 5 6 3 2 1 1 0 -0 -1 -1 -1 -2 -3 -3 -3 -3
28 27 25 25 24 23 22 22 21 20 18 16 15 15 14 12 12 13 13 16 15 15 14 12 8 6 6 8 6 4 2 1 -0 -1 -1 -1 -2 -3 -3 -4 -5 -4 -5 -5
27 26 24 22 21 20 20 20 20 19 18 17 16 16 14 13 14 14 16 17 15 14 13 8 6 4 6 5 4 2 1 1 -1 -1 -2 -4 -3 -4 -4 -5 -6 -7 -7 -8
24 23 22 21 20 21 19 18 17 16 16 14 13 14 13 15 17 17 18 16 13 12 9 5 3 3 5 4 2 1 0 -1 -2 -2 -3 -4 -5 -5 -6 -7 -8 -9 -9 -9
22 22 22 21 22 19 18 17 17 17 17 18 16 16 18 18 18 17 15 13 12 10 8 6 5 4 3 1 1 -1 -2 -3 -3 -4 -5 -5 -6 -7 -8 -10 -10 -10 -10 -10
22 22 21 21 21 20 20 20 20 19 19 19 18 18 17 18 17 15 13 12 11 9 7 5 3 1 0 -0 -1 -2 -3 -4 -6 -6 -6 -7 -8 -8 -9 -10 -10 -11 -11 -11

GFSNGP_sfc_30mbdewp_147.txt.gz
Dewpoint
12 12 12 11 12 14 12 13 12 16 11 12 13 17 18 28 33 32 30 27 27 27 27 27 22 19 17 17 17 16 16 16 19 26 27 26 27 26 24 23 24 24 24 23
23 18 14 12 18 16 15 15 15 15 14 15 15 27 27 32 33 31 28 25 24 24 23 20 16 15 16 17 18 16 15 14 15 15 15 19 20 22 19 23 22 22 21 20
13 10 9 9 17 18 14 14 13 11 12 15 18 22 29 32 31 30 28 25 22 21 20 19 17 17 17 17 18 18 15 15 15 15 15 15 16 18 17 17 19 19 19 18
11 11 8 14 17 12 12 12 11 13 25 25 27 29 33 33 30 28 25 23 25 26 23 20 19 18 18 17 18 19 19 17 17 16 16 16 16 16 18 18 17 16 16 16
12 10 9 9 11 13 13 14 16 22 23 25 28 30 31 31 30 28 25 23 25 25 26 22 19 18 18 19 18 18 20 21 19 19 17 18 18 17 17 19 19 19 18 17
15 13 8 10 13 19 20 14 25 24 26 27 27 26 33 32 28 26 23 22 21 20 19 18 18 17 18 20 21 18 19 19 21 20 21 20 19 19 18 17 19 20 20 20
16 16 15 13 20 22 15 22 30 28 27 27 28 31 32 29 28 25 21 18 17 15 12 12 13 14 14 16 20 16 13 12 15 18 20 22 21 19 19 19 18 21 22 22
16 15 13 16 22 17 20 25 26 27 29 32 33 33 32 28 26 21 17 15 13 11 10 10 10 10 9 10 10 10 9 8 9 11 11 13 15 17 16 17 17 17 18 19
12 15 22 26 24 24 24 25 28 29 32 34 32 32 30 28 24 18 14 11 8 8 9 9 7 8 8 10 9 8 5 4 5 4 5 6 8 10 12 13 14 14 14 15
19 22 20 21 22 23 25 30 32 33 32 34 35 32 28 25 22 17 11 7 4 6 8 9 9 8 9 10 8 6 3 2 3 2 2 4 5 7 9 10 11 11 14 14
20 21 22 23 25 30 30 31 33 32 31 31 32 30 27 24 20 15 10 5 2 3 6 8 8 9 9 8 7 4 2 2 4 5 4 3 7 6 8 12 11 11 12 13
23 24 25 26 29 32 32 32 32 31 30 30 30 28 25 22 20 15 11 5 2 4 7 6 7 7 7 7 6 3 2 4 8 8 8 7 7 9 13 13 13 12 12 11
21 21 26 32 34 34 33 33 31 30 30 29 28 26 24 22 21 18 10 5 2 4 7 7 7 8 8 9 8 8 8 8 10 11 11 11 11 12 12 16 14 14 12 11
20 21 23 22 26 32 33 32 30 29 29 28 27 25 23 24 22 14 11 6 2 4 7 8 10 17 18 17 17 16 16 15 15 15 15 14 14 15 14 13 13 14 16 10
18 19 19 21 30 32 31 30 29 28 27 26 25 24 26 24 19 16 10 3 1 6 9 13 16 16 17 16 17 17 14 15 15 15 15 14 14 13 12 11 11 10 9 9
17 20 24 29 31 31 30 30 29 28 26 24 25 26 26 22 20 14 8 3 3 6 10 14 15 16 16 15 16 16 17 15 12 13 13 12 12 11 9 9 8 8 7 9
19 23 30 30 31 31 30 30 29 27 25 26 27 27 24 22 18 15 13 13 17 14 16 15 17 17 18 17 17 15 15 13 12 10 10 9 9 8 7 7 7 6 5 7
21 26 31 31 32 32 30 30 29 27 26 26 27 26 23 20 18 16 16 18 17 17 16 17 17 18 18 17 17 12 10 8 7 7 6 7 5 4 5 6 4 4 4 3
25 29 32 32 32 32 31 29 28 28 28 27 25 23 22 21 19 18 18 17 16 16 17 17 17 16 15 14 9 8 8 8 6 3 5 4 5 5 5 4 4 4 4 4
31 32 33 33 32 31 31 31 30 29 28 25 24 23 21 21 19 18 17 15 15 16 17 16 15 13 12 10 9 5 7 8 3 4 6 5 6 6 5 2 2 3 4 3
35 34 33 33 32 32 31 30 29 27 25 25 24 23 22 21 19 18 16 16 20 18 16 16 13 11 9 7 5 9 8 8 6 5 5 5 5 4 4 3 3 2 2 2
32 31 31 30 30 29 29 29 27 26 25 24 24 23 21 18 17 17 18 16 17 17 16 14 13 10 8 6 6 9 5 4 4 4 3 3 3 3 2 2 1 1 1 0
31 30 29 28 28 27 27 27 25 25 24 23 21 20 19 17 16 16 15 16 16 16 15 15 11 9 9 11 9 7 5 3 3 2 2 2 2 1 1 0 -1 -1 -1 -2
29 29 28 28 27 25 25 24 24 23 22 21 20 21 18 17 16 15 16 16 16 17 17 11 9 8 10 9 7 6 5 4 3 3 1 -2 1 0 -0 -1 -2 -3 -3 -4
28 28 26 25 25 24 23 21 20 19 18 17 17 18 16 17 18 19 20 19 18 15 12 8 7 7 10 8 6 5 4 3 3 1 0 0 -1 -1 -2 -2 -4 -4 -6 -5
26 25 25 24 24 22 21 20 19 19 19 19 18 18 19 20 22 20 18 15 15 13 11 8 8 8 7 5 4 3 2 1 1 -1 -2 -2 -2 -3 -3 -5 -5 -5 -5 -6
25 24 23 23 22 22 21 22 22 21 22 21 20 23 22 21 19 17 16 15 14 13 12 10 7 7 6 4 3 1 0 0 -3 -2 -3 -3 -4 -3 -5 -6 -6 -6 -7 -7